Location: Brusselsch Zeekanaal
(50.8667°N, 4.3667°E)
Time: 07:19:53
(UTC+00:00)

Cosmos 1656 Rocket - Pass Details

Date: 08 November 2025
Orbit: 791 x 846 km, 71.1° (Epoch: 11 December)

Event Time Altitude Azimuth Distance (km) Brightness Sun altitude
Exits shadow 05:05:47 - 334° (NNW) 2,938 6.2 -16.0°
Reaches altitude 10° 05:07:03 10° 337° (NNW) 2,471 5.8 -15.8°
Maximum altitude 05:12:37 53° 54° (NE) 1,033 4.4 -15.0°
Drops below altitude 10° 05:18:10 10° 131° (SE) 2,465 7.0 -14.1°
Sets 05:20:40 0° 136° (SE) 3,395 7.8 -13.7°
